Regional Weather Roundup
Issued by NWS

Home | Current Version | Previous Version | Graphics & Text | Print | Product List | Glossary On
Versions: 1 2 3 4 5 6 7 8 9 10 11 12 13 14 15 16 17 18 19 20 21 22 23 24 25
000
ASUS45 KCYS 221910
RWRWY

WYOMING REGIONAL WEATHER ROUNDUP
NATIONAL WEATHER SERVICE CHEYENNE WY
100 PM MDT WED OCT 22 2014

NOTE:  "FAIR" INDICATES FEW OR NO CLOUDS BELOW 12,000 FEET
WITH NO SIGNIFICANT WEATHER AND/OR OBSTRUCTIONS TO VISIBILITY.

WYZ001-222000-
YELLOWSTONE NATIONAL PARK

CITY           SKY/WX    TMP DP  RH WIND       PRES   REMARKS
LK YELLOWSTONE   N/A     38  25  59 W8        30.22S WCI  32
W YELLOWSTONE  NOT AVBL

$$
WYZ002>013-054>058-071-098>099-222000-
NORTHERN WYOMING

CITY           SKY/WX    TMP DP  RH WIND       PRES   REMARKS
JACKSON        NOT AVBL
CODY           SUNNY     55  23  28 SW16G23   30.06F
GREYBULL       SUNNY     58  25  28 CALM      30.05F
WORLAND        SUNNY     57  24  28 VRB3      30.06F
SHERIDAN       SUNNY     60  26  27 E8        30.01F
BUFFALO        SUNNY     55  26  32 S9        30.04F
GILLETTE       SUNNY     55  26  32 SW8       30.05F
HULETT         FAIR      55  28  35 W13       30.04
NEWCASTLE      FAIR      55  27  33 NW12G21   30.06

$$
WYZ014>020-022>026-101>103-222000-
CENTRAL WYOMING

CITY           SKY/WX    TMP DP  RH WIND       PRES   REMARKS
BIG PINEY      SUNNY     46  19  34 CALM      30.22F
PINEDALE       CLEAR     45  21  39 NW7       30.22F
DUBOIS         FAIR      48  16  27 W24G31    30.12F
LANDER         SUNNY     55  21  26 CALM      30.09F
RIVERTON       SUNNY     54  21  27 CALM      30.11F
CASPER         SUNNY     58  20  22 SW21G26   30.09F
DOUGLAS        SUNNY     60  21  22 W15G21    30.08F

$$
WYZ021-027>030-104>119-222000-
SOUTHERN WYOMING

CITY           SKY/WX    TMP DP  RH WIND       PRES   REMARKS
EVANSTON       SUNNY     51  20  29 SW12      30.23F
KEMMERER       CLEAR     46  16  29 SW18      30.23F
FORT BRIDGER   FAIR      52  23  31 NW9       30.26F
ROCK SPRINGS   MOSUNNY   47  28  47 W13       30.22F
DIXON          FAIR      51  37  59 SW7       30.25F
RAWLINS        SUNNY     50  24  36 W21       30.19F
SARATOGA       FAIR      52  27  37 W17       30.21F
LARAMIE        MOSUNNY   55  29  36 W20G32    30.15F
CHEYENNE       PTSUNNY   63  34  33 SW15      30.10F
TORRINGTON     SUNNY     62  27  26 W9        30.06F
PINE BLUFFS    MOCLDY    59  36  41 NE9       30.08F

$$



USA.gov is the U.S. government's official web portal to all federal, state and local government web resources and services.